STARLINK-3961, 52637

Orbit data source: Space-Track

STARLINK-3961, 52637 is a payload satellite owned by SpaceX/Seattle (US) in LEO that was launched on Sat, 14 May 2022 UTC via an FALCON 9 launch vehicle from the Air Force Eastern Test Range (AFETR). Payload-class satellites include a variety of spacecraft equipped with specific instruments for various scientific and technological missions. These include communications satellites like Starlink; space stations such as the ISS; scientific satellites like the Hubble; Earth observation satellites from companies like Planet Labs, Umbra, and HawkEye 360; GPS; miniature CubeSats for education and research; and military/defense satellites.

Loading next visibility...
Identifier
52637, 2022-052AR
Orbit
LEO
Country
Flag of USUS
Related business
Manufacturer
SpaceX/Seattle
Mission
Operational Commercial Communications
Bus & Motor
STARLINK, Unknown motor
Mass
297 kg wet, ~275 kg dry
Launch date (UTC)
2022-05-14 (4 years ago)
Launch vehicle
FALCON 9
Launch site
Air Force Eastern Test Range (AFETR)
Object type
Payload
Rocket body
Debris
Shape & HBR
Box + 1 Pan, 10.1 m
Radar Cross Section
13.562 m², Large (>1 m²)

Expand to show TLE details & history
Last TLE update: 2 days ago

TLE from 2 days ago
0 STARLINK-3961
1 52637U 22052AR  26171.34816337  .00000433  00000-0  45288-4 0  9997
2 52637  53.1595 158.1541 0001187  94.1447 265.9680 15.08843395227434
Epoch: 2026-06-20T08:21Z
TLE epoch observation values (Epoch: 2026-06-20T08:21:21.315Z)
Latitude
-0.00001°
Longitude
124.2512°
Altitude
540.682 km
Speed
7.593 km/s
True Right ascension
10h 32m 36s
True Declination
0° 00' 00"
Sunlit
Object was in daylight at epoch
Visualization orbit readout
Latitude
Unknown
Longitude
Unknown
Altitude
Unknown
Speed
Unknown
Apparent Right ascension
Unknown
Apparent Declination
Unknown
Sunlit
N/A
Visualization observer readout
Local Sidereal Time
21:28:03
Azimuth
Unknown
Elevation
Unknown
Doppler factor
Unknown
Orbital elements
Apogee altitude
540.808 km
Perigee altitude
539.166 km
Semi-major axis
6,918.124 km
Eccentricity
0.00012
Inclination
53.1595°
RAAN
158.1541°
Arg. of periapsis
94.1447°
True anomaly
265.95443°
Mean anomaly
265.968°
Eccentric anomaly
265.96122°
Mean motion
3.7719 °/min
Orbital period
95.44 mins
BSTAR
0.000045288
Loading maneuver chart data...
Computing Atmospheric mass density...
Loading historical data...
Loading historical data...
Loading historical data...
Loading historical data...
Loading historical data...
Loading historical data...
Loading historical data...

Documentation

Showing up to 5 results
|